CTM2078 NWWW-YPDN

Flight info

Callsign CTM2078
Flight time N/A
Altitude 36000
Route TEPAM3E TEPAM G591 PUGEL/N0469F380 G591 CS J61 GUGUK/N0460F400 J61 DUMAV Q91 ALLEE Q23 VEGPU DCT
Aircraft A343/H-SDE2E3FGHIJ4J5M1RWXY/LB1D1

Departure

Time 2026-04-26 03:49
Airport La Tontouta International Airport (NWWW)

Arrival

Time N/A
Airport Darwin International Airport / RAAF Darwin (YPDN)
Time Latitude Longitude Altitude Speed Heading
2026-04-26 02:58 -22.01454 166.21716 66 ft 0 kts 31°
2026-04-26 03:37 -22.01461 166.21711 56 ft 4 kts 31°
2026-04-26 03:37 -22.01484 166.21696 56 ft 4 kts 31°
2026-04-26 03:38 -22.01505 166.21682 56 ft 4 kts 41°
2026-04-26 03:38 -22.01516 166.21662 56 ft 4 kts 104°
2026-04-26 03:38 -22.01505 166.21638 56 ft 3 kts 122°
2026-04-26 03:38 -22.01501 166.21630 56 ft 0 kts 121°
2026-04-26 03:43 -22.01501 166.21631 56 ft 0 kts 121°
2026-04-26 03:43 -22.01506 166.21641 56 ft 3 kts 121°
2026-04-26 03:43 -22.01526 166.21669 56 ft 6 kts 141°
2026-04-26 03:43 -22.01583 166.21656 55 ft 10 kts 211°
2026-04-26 03:44 -22.01620 166.21623 55 ft 10 kts 241°
2026-04-26 03:44 -22.01596 166.21549 58 ft 13 kts 301°
2026-04-26 03:44 -22.01540 166.21450 53 ft 19 kts 301°
2026-04-26 03:44 -22.01464 166.21314 55 ft 23 kts 301°
2026-04-26 03:45 -22.01377 166.21160 57 ft 25 kts 301°
2026-04-26 03:45 -22.01289 166.21004 53 ft 24 kts 301°
2026-04-26 03:45 -22.01203 166.20854 55 ft 24 kts 301°
2026-04-26 03:45 -22.01117 166.20700 50 ft 24 kts 301°
2026-04-26 03:46 -22.01028 166.20541 52 ft 26 kts 301°
2026-04-26 03:46 -22.00932 166.20371 48 ft 27 kts 301°
2026-04-26 03:46 -22.00831 166.20192 45 ft 29 kts 301°
2026-04-26 03:47 -22.00728 166.20020 44 ft 8 kts 323°
2026-04-26 03:47 -22.00694 166.20003 43 ft 2 kts 335°
2026-04-26 03:47 -22.00685 166.19978 43 ft 6 kts 266°
2026-04-26 03:47 -22.00714 166.19979 43 ft 4 kts 138°
2026-04-26 03:48 -22.00721 166.19991 43 ft 0 kts 121°
2026-04-26 03:48 -22.00729 166.20006 43 ft 8 kts 121°
2026-04-26 03:48 -22.00829 166.20183 45 ft 53 kts 121°
2026-04-26 03:49 -22.01102 166.20674 52 ft 98 kts 121°
2026-04-26 03:49 -22.01527 166.21431 54 ft 136 kts 121°
2026-04-26 03:49 -22.02046 166.22336 412 ft 140 kts 121°
2026-04-26 03:49 -22.02546 166.23229 868 ft 140 kts 127°
2026-04-26 03:50 -22.03079 166.24142 1299 ft 146 kts 121°
2026-04-26 03:50 -22.03620 166.25070 1718 ft 148 kts 123°
2026-04-26 03:50 -22.04331 166.25843 2094 ft 149 kts 152°
2026-04-26 03:50 -22.05397 166.25889 2351 ft 164 kts 196°
2026-04-26 03:51 -22.06256 166.25076 2688 ft 174 kts 248°
2026-04-26 03:51 -22.06239 166.23800 3102 ft 175 kts 292°
2026-04-26 03:51 -22.05588 166.22657 3380 ft 186 kts 306°
2026-04-26 03:51 -22.04791 166.21495 3567 ft 203 kts 306°
2026-04-26 03:52 -22.03901 166.20223 3755 ft 219 kts 307°
2026-04-26 03:52 -22.02952 166.18830 3894 ft 240 kts 306°
2026-04-26 03:52 -22.01955 166.17334 4148 ft 257 kts 306°
2026-04-26 03:52 -22.00889 166.15736 4568 ft 265 kts 304°
2026-04-26 03:53 -21.99858 166.14102 5226 ft 263 kts 302°
2026-04-26 03:53 -21.99073 166.12291 5715 ft 268 kts 285°
2026-04-26 03:53 -21.98659 166.10347 6278 ft 270 kts 281°
2026-04-26 03:53 -21.98302 166.08373 6952 ft 265 kts 282°
2026-04-26 03:54 -21.97947 166.06417 7560 ft 266 kts 282°
2026-04-26 03:54 -21.97583 166.04451 8139 ft 266 kts 283°
2026-04-26 03:54 -21.97219 166.02514 8848 ft 262 kts 283°
2026-04-26 03:54 -21.96852 166.00575 9401 ft 265 kts 283°
2026-04-26 03:55 -21.96485 165.98648 9929 ft 267 kts 283°
2026-04-26 03:55 -21.96105 165.96661 10319 ft 275 kts 283°
2026-04-26 03:55 -21.95709 165.94598 10547 ft 287 kts 283°
2026-04-26 03:55 -21.95295 165.92440 10777 ft 300 kts 283°
2026-04-26 03:56 -21.94864 165.90195 10980 ft 311 kts 283°
2026-04-26 03:56 -21.94420 165.87880 11279 ft 319 kts 283°
2026-04-26 03:56 -21.93976 165.85559 11689 ft 322 kts 283°
2026-04-26 03:56 -21.93520 165.83183 12170 ft 323 kts 283°
2026-04-26 03:57 -21.93063 165.80803 12638 ft 325 kts 283°
2026-04-26 03:57 -21.92603 165.78410 13108 ft 326 kts 283°
2026-04-26 03:57 -21.92150 165.76046 13650 ft 325 kts 283°
2026-04-26 03:57 -21.91702 165.73651 14082 ft 326 kts 283°
2026-04-26 03:58 -21.91254 165.71240 14463 ft 328 kts 283°
2026-04-26 03:58 -21.90805 165.68830 14912 ft 330 kts 283°
2026-04-26 03:58 -21.90355 165.66423 15315 ft 331 kts 283°
2026-04-26 03:58 -21.89899 165.63984 15723 ft 333 kts 283°
2026-04-26 03:59 -21.89439 165.61530 16130 ft 335 kts 284°
2026-04-26 03:59 -21.88976 165.59062 16544 ft 337 kts 284°
2026-04-26 03:59 -21.88510 165.56581 16960 ft 339 kts 284°
2026-04-26 03:59 -21.88039 165.54080 17359 ft 340 kts 284°
2026-04-26 04:00 -21.87573 165.51601 17772 ft 342 kts 284°
2026-04-26 04:00 -21.87098 165.49077 18174 ft 344 kts 284°
2026-04-26 04:00 -21.86620 165.46541 18529 ft 346 kts 284°
2026-04-26 04:00 -21.86139 165.43994 18872 ft 348 kts 284°
2026-04-26 04:01 -21.85654 165.41424 19243 ft 351 kts 284°
2026-04-26 04:01 -21.85167 165.38847 19605 ft 353 kts 284°
2026-04-26 04:01 -21.84674 165.36242 19981 ft 355 kts 284°
2026-04-26 04:01 -21.84181 165.33636 20341 ft 357 kts 284°
2026-04-26 04:02 -21.83683 165.31010 20698 ft 359 kts 284°
2026-04-26 04:02 -21.83192 165.28417 21052 ft 361 kts 284°
2026-04-26 04:02 -21.82685 165.25749 21413 ft 363 kts 284°
2026-04-26 04:02 -21.82182 165.23104 21776 ft 365 kts 284°
2026-04-26 04:03 -21.81665 165.20383 22114 ft 367 kts 284°
2026-04-26 04:03 -21.81158 165.17719 22460 ft 369 kts 284°
2026-04-26 04:03 -21.80639 165.14997 22813 ft 371 kts 284°
2026-04-26 04:03 -21.80119 165.12268 23164 ft 373 kts 284°
2026-04-26 04:04 -21.79593 165.09512 23513 ft 375 kts 284°
2026-04-26 04:04 -21.79072 165.06788 23825 ft 377 kts 284°
2026-04-26 04:04 -21.78542 165.04014 24150 ft 378 kts 284°
2026-04-26 04:04 -21.78011 165.01242 24495 ft 378 kts 284°
2026-04-26 04:05 -21.77481 164.98471 24856 ft 378 kts 284°
2026-04-26 04:05 -21.76949 164.95698 25196 ft 378 kts 284°
2026-04-26 04:05 -21.76425 164.92971 25530 ft 378 kts 284°
2026-04-26 04:05 -21.75892 164.90194 25864 ft 378 kts 284°
2026-04-26 04:06 -21.75359 164.87426 26195 ft 378 kts 284°
2026-04-26 04:06 -21.74825 164.84646 26527 ft 377 kts 285°
2026-04-26 04:06 -21.74294 164.81889 26919 ft 376 kts 285°
2026-04-26 04:06 -21.73764 164.79143 27210 ft 377 kts 285°
2026-04-26 04:07 -21.73231 164.76387 27496 ft 378 kts 285°
2026-04-26 04:07 -21.72696 164.73620 27785 ft 379 kts 285°
2026-04-26 04:07 -21.72159 164.70842 28092 ft 380 kts 285°
2026-04-26 04:07 -21.71618 164.68047 28375 ft 380 kts 285°
2026-04-26 04:08 -21.71077 164.65256 28663 ft 381 kts 285°
2026-04-26 04:08 -21.70535 164.62461 28953 ft 382 kts 286°
2026-04-26 04:08 -21.69998 164.59695 29233 ft 382 kts 286°
2026-04-26 04:08 -21.69453 164.56892 29514 ft 383 kts 286°
2026-04-26 04:09 -21.68905 164.54074 29797 ft 384 kts 286°
2026-04-26 04:09 -21.68359 164.51269 30051 ft 384 kts 286°
2026-04-26 04:09 -21.67812 164.48464 30246 ft 386 kts 286°
2026-04-26 04:09 -21.67261 164.45638 30439 ft 388 kts 286°
2026-04-26 04:10 -21.66705 164.42793 30628 ft 389 kts 286°
2026-04-26 04:10 -21.66147 164.39934 30835 ft 390 kts 286°
2026-04-26 04:10 -21.65586 164.37070 31031 ft 391 kts 286°
2026-04-26 04:10 -21.65023 164.34194 31218 ft 393 kts 285°
2026-04-26 04:11 -21.64464 164.31341 31393 ft 395 kts 285°
2026-04-26 04:11 -21.63893 164.28431 31599 ft 396 kts 285°
2026-04-26 04:11 -21.63322 164.25522 31804 ft 397 kts 285°
2026-04-26 04:11 -21.62755 164.22635 32070 ft 397 kts 285°
2026-04-26 04:12 -21.62180 164.19710 32375 ft 396 kts 285°
2026-04-26 04:12 -21.61616 164.16844 32643 ft 395 kts 285°
2026-04-26 04:12 -21.61046 164.13953 32919 ft 394 kts 285°
2026-04-26 04:12 -21.60478 164.11074 33186 ft 393 kts 285°
2026-04-26 04:13 -21.59914 164.08208 33452 ft 393 kts 285°
2026-04-26 04:13 -21.59353 164.05370 33684 ft 392 kts 285°
2026-04-26 04:13 -21.58779 164.02497 33938 ft 391 kts 285°
2026-04-26 04:13 -21.58209 163.99645 34173 ft 390 kts 285°
2026-04-26 04:14 -21.57638 163.96797 34404 ft 389 kts 285°
2026-04-26 04:14 -21.57070 163.93960 34637 ft 387 kts 285°
2026-04-26 04:14 -21.56506 163.91140 34865 ft 386 kts 285°
2026-04-26 04:14 -21.55940 163.88317 35084 ft 385 kts 284°
2026-04-26 04:15 -21.55377 163.85506 35297 ft 384 kts 284°
2026-04-26 04:15 -21.54814 163.82700 35500 ft 383 kts 284°
2026-04-26 04:15 -21.54261 163.79945 35702 ft 382 kts 284°
2026-04-26 04:15 -21.53700 163.77150 35858 ft 382 kts 284°
2026-04-26 04:16 -21.53141 163.74375 35887 ft 382 kts 284°
2026-04-26 04:16 -21.52029 163.68848 35886 ft 376 kts 284°
2026-04-26 04:17 -21.50929 163.63370 35885 ft 375 kts 281°
2026-04-26 04:17 -21.49859 163.57851 35883 ft 376 kts 284°
2026-04-26 04:18 -21.48728 163.52402 35884 ft 376 kts 284°
2026-04-26 04:18 -21.47593 163.46901 35883 ft 376 kts 284°
2026-04-26 04:19 -21.46479 163.41441 35881 ft 376 kts 284°
2026-04-26 04:19 -21.45363 163.35955 35880 ft 376 kts 284°
2026-04-26 04:20 -21.44243 163.30459 35884 ft 376 kts 284°
2026-04-26 04:20 -21.43125 163.24979 35883 ft 377 kts 283°
2026-04-26 04:21 -21.42004 163.19499 35884 ft 377 kts 283°
2026-04-26 04:21 -21.40879 163.14011 35883 ft 377 kts 283°
2026-04-26 04:22 -21.39752 163.08521 35884 ft 377 kts 283°
2026-04-26 04:22 -21.38621 163.03020 35887 ft 377 kts 283°
2026-04-26 04:23 -21.37489 162.97531 35883 ft 377 kts 283°
2026-04-26 04:23 -21.36352 162.92049 35887 ft 377 kts 283°
2026-04-26 04:24 -21.35212 162.86576 35889 ft 377 kts 283°
2026-04-26 04:24 -21.34069 162.81092 35886 ft 378 kts 283°
2026-04-26 04:25 -21.32920 162.75584 35886 ft 378 kts 283°
2026-04-26 04:25 -21.31768 162.70069 35886 ft 377 kts 283°
2026-04-26 04:26 -21.30620 162.64589 35886 ft 377 kts 283°
2026-04-26 04:26 -21.29474 162.59122 35886 ft 378 kts 283°
2026-04-26 04:27 -21.28325 162.53651 35886 ft 378 kts 283°
2026-04-26 04:27 -21.27166 162.48146 35892 ft 378 kts 283°
2026-04-26 04:28 -21.26010 162.42659 35889 ft 378 kts 283°
2026-04-26 04:28 -21.24849 162.37160 35889 ft 378 kts 283°
2026-04-26 04:29 -21.23690 162.31682 35889 ft 378 kts 283°
2026-04-26 04:29 -21.22527 162.26191 35889 ft 378 kts 283°
2026-04-26 04:30 -21.21356 162.20675 35889 ft 379 kts 283°
2026-04-26 04:30 -21.20185 162.15164 35889 ft 379 kts 283°
2026-04-26 04:31 -21.19018 162.09680 35892 ft 379 kts 283°
2026-04-26 04:31 -21.17843 162.04174 35892 ft 379 kts 283°
2026-04-26 04:32 -21.16865 161.99592 35892 ft 379 kts 283°
2026-04-26 04:32 -21.15691 161.94106 35892 ft 379 kts 283°
2026-04-26 04:33 -21.14510 161.88596 35889 ft 379 kts 283°
2026-04-26 04:33 -21.13329 161.83091 35895 ft 379 kts 283°
2026-04-26 04:34 -21.12151 161.77613 35895 ft 379 kts 283°
2026-04-26 04:34 -21.10964 161.72105 35889 ft 377 kts 283°
2026-04-26 04:35 -21.09787 161.66647 35891 ft 376 kts 283°
2026-04-26 04:35 -21.08615 161.61223 35891 ft 376 kts 283°
2026-04-26 04:36 -21.07434 161.55766 35887 ft 376 kts 283°
2026-04-26 04:36 -21.06251 161.50307 35894 ft 375 kts 283°
2026-04-26 04:37 -21.05077 161.44900 35893 ft 375 kts 283°
2026-04-26 04:37 -21.03892 161.39451 35893 ft 375 kts 283°
2026-04-26 04:38 -21.02705 161.34003 35895 ft 375 kts 283°
2026-04-26 04:38 -21.01525 161.28592 35896 ft 375 kts 283°
2026-04-26 04:39 -21.00335 161.23149 35895 ft 375 kts 283°
2026-04-26 04:39 -20.99144 161.17709 35898 ft 375 kts 282°
2026-04-26 04:40 -20.97959 161.12302 35887 ft 375 kts 282°
2026-04-26 04:40 -20.96771 161.06891 35894 ft 375 kts 282°
2026-04-26 04:41 -20.95576 161.01458 35889 ft 375 kts 282°
2026-04-26 04:41 -20.94380 160.96027 35892 ft 375 kts 282°
2026-04-26 04:42 -20.93182 160.90596 35891 ft 375 kts 282°
2026-04-26 04:42 -20.91980 160.85161 35891 ft 375 kts 282°
2026-04-26 04:43 -20.90785 160.79761 35891 ft 375 kts 282°
2026-04-26 04:43 -20.89580 160.74324 35892 ft 375 kts 282°
2026-04-26 04:44 -20.88371 160.68880 35890 ft 375 kts 282°
2026-04-26 04:44 -20.87167 160.63466 35896 ft 375 kts 282°
2026-04-26 04:45 -20.85953 160.58018 35891 ft 375 kts 282°
2026-04-26 04:45 -20.84749 160.52621 35895 ft 375 kts 282°
2026-04-26 04:46 -20.83533 160.47177 35891 ft 376 kts 282°
2026-04-26 04:46 -20.82315 160.41735 35893 ft 376 kts 282°
2026-04-26 04:47 -20.81102 160.36325 35890 ft 376 kts 282°
2026-04-26 04:47 -20.79880 160.30883 35891 ft 376 kts 282°
2026-04-26 04:48 -20.78050 160.22744 35891 ft 376 kts 282°
2026-04-26 04:48 -20.76824 160.17308 35882 ft 376 kts 282°
2026-04-26 04:49 -20.75596 160.11865 35881 ft 377 kts 282°
2026-04-26 04:49 -20.74368 160.06436 35894 ft 377 kts 282°
2026-04-26 04:50 -20.73134 160.00984 35893 ft 377 kts 282°
2026-04-26 04:50 -20.71904 159.95562 35896 ft 377 kts 282°
2026-04-26 04:51 -20.70665 159.90105 35876 ft 377 kts 282°
2026-04-26 04:51 -20.69430 159.84677 35885 ft 377 kts 282°
2026-04-26 04:52 -20.68185 159.79213 35890 ft 378 kts 282°
2026-04-26 04:52 -20.66940 159.73758 35888 ft 378 kts 282°
2026-04-26 04:53 -20.65696 159.68313 35890 ft 378 kts 282°
2026-04-26 04:53 -20.64444 159.62843 35891 ft 378 kts 282°
2026-04-26 04:54 -20.63199 159.57412 35889 ft 378 kts 282°
2026-04-26 04:54 -20.61943 159.51944 35882 ft 378 kts 282°
2026-04-26 04:55 -20.60693 159.46508 35889 ft 379 kts 282°
2026-04-26 04:55 -20.59431 159.41025 35891 ft 379 kts 282°
2026-04-26 04:56 -20.58167 159.35549 35891 ft 380 kts 282°
2026-04-26 04:56 -20.56909 159.30102 35889 ft 380 kts 282°
2026-04-26 04:57 -20.55643 159.24631 35886 ft 380 kts 282°
2026-04-26 04:57 -20.54374 159.19153 35876 ft 379 kts 282°
2026-04-26 04:58 -20.53101 159.13670 35884 ft 381 kts 281°
2026-04-26 04:58 -20.51831 159.08201 35888 ft 381 kts 281°
2026-04-26 04:59 -20.50551 159.02701 35888 ft 381 kts 281°
2026-04-26 04:59 -20.49277 158.97239 35889 ft 381 kts 282°
2026-04-26 05:00 -20.47992 158.91733 35902 ft 381 kts 282°
2026-04-26 05:00 -20.46712 158.86261 35892 ft 381 kts 282°
2026-04-26 05:01 -20.45425 158.80764 35889 ft 382 kts 281°
2026-04-26 05:01 -20.44132 158.75251 35880 ft 383 kts 281°
2026-04-26 05:02 -20.42844 158.69769 35873 ft 384 kts 281°
2026-04-26 05:02 -20.41541 158.64226 35880 ft 385 kts 281°
2026-04-26 05:03 -20.40240 158.58706 35881 ft 385 kts 281°
2026-04-26 05:03 -20.38929 158.53152 35883 ft 385 kts 281°
2026-04-26 05:04 -20.37628 158.47645 35889 ft 385 kts 281°
2026-04-26 05:04 -20.36316 158.42100 35891 ft 385 kts 282°
2026-04-26 05:05 -20.35013 158.36606 35888 ft 385 kts 282°
2026-04-26 05:05 -20.33700 158.31071 35889 ft 384 kts 282°
2026-04-26 05:06 -20.32393 158.25571 35891 ft 384 kts 282°
2026-04-26 05:06 -20.31103 158.20140 35898 ft 384 kts 281°